Wind_Speed
28 27 27 25 25 23 22 21 20 20 21 23 24 24 24 25 26 27 28 29 30 32 34 35 37 38 40 42 43 45 46 47 49 50 51 52 54 55 55 56 57 58 58
28 28 27 26 25 24 23 23 22 22 22 23 24 23 24 25 26 28 29 31 32 33 35 37 38 39 41 42 43 45 46 47 48 49 50 51 52 53 53 53 54 54 54
28 27 27 26 25 24 24 24 24 24 24 24 25 25 25 26 27 29 30 31 33 34 36 37 38 40 41 42 43 44 44 45 46 46 47 48 48 49 49 49 50 49 48
27 27 27 26 26 25 26 26 26 25 25 26 26 27 27 28 29 30 31 32 33 34 36 37 38 39 40 41 41 41 42 42 42 43 43 44 44 44 45 44 43 41 40
27 27 27 26 26 26 26 26 26 25 25 25 26 26 27 28 29 30 30 31 33 34 35 36 37 37 37 38 38 39 39 39 39 39 40 40 40 40 39 38 36 34 33
26 26 26 26 25 25 25 26 25 25 24 24 25 26 27 27 28 28 29 31 32 33 34 34 34 34 34 36 36 35 35 35 35 35 35 35 35 34 33 31 30 29 29
24 24 24 24 24 25 24 24 24 24 24 25 25 26 26 26 27 28 28 29 30 30 30 30 30 30 30 29 29 29 29 28 28 29 29 28 28 27 27 26 26 25 24
22 23 22 22 22 22 23 23 23 24 23 23 24 24 25 25 25 26 27 26 25 25 25 25 25 25 25 25 24 24 24 25 25 25 24 24 24 24 23 22 21 21 19
19 20 20 20 21 21 21 21 22 22 22 23 23 23 23 23 23 23 23 22 22 23 23 23 23 22 22 22 22 22 22 22 22 22 21 21 21 21 20 19 18 17 16
18 18 19 19 19 20 20 20 20 21 21 21 21 21 21 21 21 21 20 20 20 20 20 20 20 19 20 20 20 20 20 19 19 20 19 19 19 19 18 16 15 14 13
17 17 17 18 18 18 19 19 19 19 19 19 20 19 19 19 19 18 18 18 18 18 18 17 17 17 17 18 18 18 18 17 17 17 17 17 17 15 14 14 13 12 11
15 16 16 17 17 17 18 18 18 18 18 18 17 16 16 16 16 15 15 15 15 15 15 15 15 16 16 17 17 17 16 16 16 16 15 15 14 13 12 11 11 11 10
14 14 14 14 15 16 16 16 16 16 16 15 14 14 14 14 13 13 13 14 13 13 13 13 14 15 15 16 15 15 15 15 14 14 14 13 12 11 11 10 10 10 9
13 13 13 13 13 13 13 14 14 13 13 13 12 12 12 12 12 12 12 12 12 12 12 13 13 13 14 14 14 14 14 13 13 13 12 11 11 10 10 9 9 8 8
11 11 12 12 12 12 12 12 12 12 11 11 11 11 10 11 11 11 11 11 11 12 12 12 12 13 13 13 13 13 13 12 12 11 10 10 9 9 8 7 7 7 6
10 10 10 10 10 10 10 11 11 11 11 10 10 9 9 10 10 9 10 10 10 10 11 11 12 12 13 13 13 12 12 11 10 10 9 8 8 7 7 6 6 6 6
8 9 9 9 9 9 9 10 10 9 9 9 9 8 8 8 8 8 8 9 9 9 10 11 11 12 12 12 11 11 10 10 9 9 8 7 7 6 5 4 5 5 6
7 7 7 7 8 8 8 8 8 8 8 8 7 7 7 7 7 7 7 8 8 9 9 10 11 11 11 11 10 10 9 9 8 8 7 6 6 5 4 3 4 5 5
4 5 5 5 6 6 6 7 7 7 6 6 6 6 6 6 6 6 6 7 8 8 9 10 10 10 10 10 10 9 9 8 8 7 6 5 4 4 3 3 4 4 5
2 3 3 4 4 4 4 5 5 5 5 5 5 5 5 5 5 5 5 6 7 8 8 9 9 9 9 9 9 8 8 7 7 6 5 5 4 4 4 4 4 4 5
1 1 2 3 3 3 3 3 3 3 4 4 4 4 4 4 4 4 5 6 7 7 8 8 9 8 8 8 8 7 7 6 5 5 5 4 4 4 4 4 5 5 5
4 4 3 3 2 2 2 2 2 2 2 2 2 2 2 2 3 3 4 5 6 7 8 8 8 8 7 7 7 6 6 6 5 4 4 4 5 5 5 5 6 6 7
7 6 5 4 3 3 2 2 2 1 1 1 0 0 0 1 2 3 4 5 6 7 7 7 7 7 7 7 6 6 5 5 5 5 5 5 5 6 7 7 7 8 8
9 8 7 6 5 5 4 4 4 3 3 3 3 2 2 2 3 4 4 5 6 7 7 7 7 7 7 7 6 6 6 5 5 5 5 6 7 7 8 8 8 9 9
11 10 10 9 8 8 7 7 6 6 5 5 5 5 5 5 5 5 6 6 7 7 8 8 8 8 8 8 7 7 7 7 7 7 7 8 8 9 9 9 9 9 9
13 12 12 11 11 10 9 9 8 8 8 8 7 7 7 7 7 7 7 7 8 8 9 9 9 9 9 9 9 9 8 9 9 9 9 9 9 9 9 9 9 9 8
Wind_Direction
252 254 255 257 260 260 261 262 260 260 257 255 255 257 258 259 259 260 262 264 266 268 270 272 274 276 278 279 281 282 282 283 283 283 283 283 283 283 283 283 283 283 282
250 252 254 256 256 255 256 255 255 257 257 259 258 259 260 261 261 263 265 266 269 271 274 276 278 279 280 281 282 283 283 283 284 284 285 285 285 286 286 286 286 286 285
248 250 251 251 252 253 256 255 255 255 256 258 259 260 262 263 265 266 268 271 273 275 277 279 280 281 282 283 284 284 285 285 286 287 287 288 288 289 289 289 288 288 287
246 248 249 251 253 254 255 256 256 256 257 258 259 261 264 266 268 270 272 274 276 278 280 281 282 283 284 285 285 286 286 287 289 290 291 292 292 293 292 292 291 291 291
249 249 250 251 253 256 257 258 259 259 259 259 260 261 265 267 269 272 274 277 279 281 282 283 284 285 286 287 287 288 289 290 291 293 294 295 295 296 295 295 295 295 295
251 251 251 252 254 256 257 258 259 260 260 260 262 265 268 271 273 275 278 280 282 283 285 285 286 287 288 289 290 291 292 293 295 296 298 299 299 300 300 299 299 299 297
253 252 252 253 254 255 258 258 258 260 262 264 266 268 270 273 276 278 281 283 285 286 287 288 290 291 293 294 295 296 298 300 302 303 304 304 304 304 305 304 304 304 303
252 252 253 254 255 257 259 259 260 262 264 266 267 269 273 276 278 281 284 286 287 289 290 292 293 296 297 300 302 304 306 307 309 309 309 309 309 310 312 312 311 313 311
247 248 250 251 254 257 258 261 262 264 265 266 268 271 273 277 280 283 285 286 288 290 292 294 297 299 301 305 307 309 310 312 313 315 315 313 313 315 316 317 317 316 315
246 248 250 252 255 257 258 259 260 262 264 266 267 270 274 278 281 283 285 286 289 292 295 298 300 303 305 307 310 311 313 315 317 318 319 319 319 320 321 323 323 322 323
251 252 253 254 255 256 258 259 260 262 264 265 267 270 274 278 281 283 285 287 290 294 298 301 304 306 308 311 312 312 315 316 318 319 320 321 322 324 327 329 330 330 330
256 256 256 256 256 256 258 260 260 262 263 264 267 270 274 278 281 283 285 288 292 296 300 303 306 309 311 312 313 314 315 317 318 320 322 325 326 328 331 333 336 337 335
256 256 256 256 256 257 258 259 259 260 260 262 265 270 275 279 282 285 286 288 293 298 302 305 309 311 314 315 316 316 316 318 319 320 323 326 329 332 334 336 340 341 342
255 255 256 257 260 263 262 259 257 257 257 259 263 268 274 279 282 285 286 288 293 299 304 308 311 314 316 318 319 318 318 319 321 322 324 327 330 334 339 344 349 353 356
256 256 256 258 261 262 259 255 255 254 254 256 261 267 273 278 282 284 286 290 295 302 306 309 312 315 317 318 319 321 322 324 325 325 327 329 334 339 342 347 355 1 4
256 254 254 255 256 255 253 252 252 251 253 257 261 264 271 278 281 285 289 293 299 305 308 311 314 317 319 321 322 323 325 327 330 330 330 333 337 342 348 354 3 12 17
252 253 252 252 251 251 251 248 248 248 250 254 258 264 273 279 283 288 292 297 303 309 312 315 318 320 321 323 326 328 330 332 334 336 338 340 344 350 358 7 15 24 30
250 251 251 248 247 247 245 242 241 243 245 250 259 266 274 281 286 291 295 302 308 313 318 321 324 326 326 328 331 333 334 336 339 340 343 348 355 4 15 25 35 41 44
242 243 241 237 237 238 236 237 237 239 243 251 258 266 275 284 288 292 298 308 314 320 324 327 329 331 332 334 337 338 339 340 342 346 351 359 11 26 41 52 56 57 58
221 228 226 226 228 229 229 228 230 236 241 248 256 265 275 285 291 297 307 316 322 326 330 333 335 336 337 340 342 344 346 347 351 359 8 18 32 48 60 69 70 70 73
144 175 191 197 199 201 206 215 221 227 236 246 253 261 275 289 300 310 320 328 332 334 337 339 340 341 343 346 349 352 355 359 4 13 24 36 50 65 74 77 77 80 82
97 104 112 128 150 168 179 184 194 208 224 232 241 248 270 296 315 330 337 341 344 346 347 346 346 348 350 353 356 358 3 10 20 33 42 51 63 76 85 88 89 89 91
85 89 92 97 107 120 129 133 127 120 125 136 142 117 356 353 356 358 358 359 1 1 359 359 1 4 6 6 8 13 20 28 38 48 55 64 74 85 92 95 96 96 95
76 76 79 85 89 92 92 91 90 89 89 90 85 76 65 52 38 29 23 22 20 17 17 18 19 20 21 23 26 32 38 45 53 61 70 79 88 93 97 99 98 98 97
72 73 75 78 81 83 84 86 87 85 85 86 83 79 73 63 55 49 44 39 35 34 34 34 34 34 35 39 43 48 53 59 66 74 83 90 94 97 99 100 100 99 97
72 72 73 75 76 78 79 81 81 81 81 83 81 77 73 69 64 60 55 50 48 47 45 43 43 44 46 50 55 60 65 70 76 82 88 92 95 97 98 99 99 98 94
Height
5772 5773 5774 5775 5776 5776 5777 5777 5777 5778 5778 5779 5780 5780 5780 5780 5781 5781 5781 5781 5781 5780 5779 5777 5776 5774 5772 5769 5767 5763 5760 5757 5753 5749 5746 5741 5737 5733 5729 5724 5720 5715 5711
5765 5767 5768 5769 5769 5770 5770 5771 5772 5772 5772 5773 5773 5774 5774 5774 5774 5774 5774 5773 5772 5771 5769 5768 5766 5764 5761 5758 5755 5752 5748 5745 5741 5737 5732 5728 5724 5719 5715 5710 5705 5700 5696
5759 5760 5761 5762 5763 5763 5764 5765 5765 5765 5766 5766 5767 5767 5767 5767 5766 5766 5765 5764 5763 5762 5760 5758 5756 5753 5751 5747 5744 5740 5737 5733 5729 5724 5720 5716 5711 5706 5701 5697 5691 5687 5682
5752 5753 5754 5755 5756 5757 5757 5758 5758 5758 5759 5759 5759 5759 5759 5759 5758 5758 5757 5756 5754 5752 5750 5748 5745 5743 5740 5736 5733 5729 5726 5722 5717 5713 5709 5704 5699 5694 5690 5685 5680 5675 5671
5745 5746 5747 5748 5749 5749 5750 5750 5750 5751 5751 5752 5752 5752 5752 5751 5751 5749 5748 5747 5745 5743 5741 5738 5735 5732 5729 5726 5723 5719 5715 5711 5707 5703 5698 5694 5689 5684 5679 5674 5670 5666 5662
5737 5738 5739 5740 5741 5742 5743 5743 5743 5744 5744 5744 5745 5744 5744 5744 5743 5742 5740 5739 5737 5734 5732 5729 5726 5723 5719 5716 5712 5709 5705 5701 5697 5693 5689 5684 5680 5675 5671 5666 5662 5659 5656
5730 5731 5732 5733 5734 5735 5735 5736 5737 5737 5737 5737 5737 5737 5737 5736 5735 5734 5732 5730 5728 5725 5723 5720 5717 5714 5710 5707 5703 5700 5696 5692 5689 5685 5681 5676 5672 5668 5664 5660 5656 5653 5650
5723 5724 5725 5726 5728 5728 5729 5729 5730 5730 5730 5730 5730 5730 5729 5729 5727 5726 5724 5722 5720 5718 5715 5712 5709 5706 5703 5700 5696 5693 5689 5686 5683 5679 5675 5671 5667 5663 5659 5656 5652 5648 5645
5717 5718 5719 5720 5721 5722 5722 5723 5723 5723 5723 5724 5724 5723 5723 5722 5721 5719 5717 5716 5714 5712 5709 5706 5703 5700 5697 5694 5691 5687 5684 5681 5677 5674 5670 5666 5663 5659 5656 5652 5649 5646 5643
5711 5712 5713 5714 5715 5716 5716 5716 5717 5717 5717 5717 5717 5717 5717 5716 5714 5713 5711 5710 5708 5706 5703 5700 5697 5695 5692 5689 5686 5683 5680 5677 5673 5670 5666 5663 5659 5656 5653 5649 5646 5644 5641
5706 5707 5708 5708 5709 5710 5710 5711 5711 5711 5712 5712 5712 5711 5711 5710 5709 5707 5706 5704 5702 5700 5698 5696 5693 5691 5688 5685 5682 5679 5676 5673 5670 5667 5663 5660 5657 5654 5651 5647 5645 5642 5640
5701 5702 5703 5703 5704 5705 5705 5705 5706 5706 5706 5706 5706 5706 5705 5704 5703 5702 5701 5700 5698 5696 5694 5691 5689 5687 5684 5681 5678 5675 5673 5670 5667 5664 5661 5658 5655 5652 5649 5646 5643 5641 5638
5697 5697 5698 5698 5699 5699 5700 5700 5701 5701 5701 5701 5701 5701 5701 5700 5699 5698 5697 5695 5694 5692 5690 5688 5685 5683 5681 5678 5675 5672 5670 5667 5664 5661 5658 5656 5653 5650 5647 5645 5642 5640 5637
5693 5693 5694 5694 5695 5695 5695 5695 5696 5696 5697 5697 5697 5697 5696 5696 5695 5694 5693 5692 5690 5689 5687 5685 5682 5680 5677 5675 5672 5669 5667 5664 5661 5659 5656 5654 5651 5649 5646 5644 5642 5640 5638
5689 5689 5689 5690 5690 5691 5691 5691 5692 5692 5693 5693 5693 5693 5693 5692 5692 5691 5690 5688 5687 5685 5683 5681 5679 5677 5674 5672 5669 5667 5664 5662 5659 5657 5654 5652 5650 5647 5645 5643 5641 5639 5638
5685 5685 5686 5686 5687 5687 5687 5688 5688 5689 5689 5690 5690 5690 5690 5689 5689 5688 5687 5686 5684 5682 5681 5679 5676 5674 5672 5669 5667 5664 5662 5659 5657 5655 5652 5650 5648 5646 5645 5643 5641 5640 5638
5682 5682 5682 5683 5683 5684 5684 5685 5686 5686 5687 5687 5687 5687 5687 5687 5686 5685 5684 5683 5681 5680 5678 5676 5674 5671 5669 5666 5664 5662 5659 5657 5655 5653 5651 5649 5647 5646 5644 5643 5642 5640 5639
5679 5679 5680 5680 5681 5681 5682 5682 5683 5684 5684 5685 5685 5685 5685 5684 5684 5683 5682 5681 5679 5677 5675 5673 5671 5669 5666 5664 5662 5660 5657 5655 5653 5652 5650 5648 5647 5645 5644 5643 5642 5641 5640
5677 5677 5678 5678 5679 5679 5680 5681 5681 5682 5682 5683 5683 5683 5683 5682 5681 5681 5679 5678 5677 5675 5673 5671 5669 5667 5664 5662 5660 5658 5656 5654 5652 5650 5649 5648 5646 5645 5644 5643 5643 5642 5641
5676 5677 5677 5677 5678 5678 5679 5679 5680 5680 5681 5681 5681 5681 5681 5680 5680 5679 5678 5677 5675 5673 5671 5669 5667 5665 5663 5661 5659 5657 5655 5653 5651 5650 5649 5647 5646 5645 5645 5644 5643 5643 5642
5676 5676 5676 5677 5677 5678 5678 5679 5679 5679 5680 5680 5680 5679 5679 5679 5678 5677 5676 5675 5674 5672 5670 5668 5666 5664 5662 5660 5658 5656 5654 5652 5651 5650 5649 5648 5647 5646 5645 5645 5644 5644 5644
5677 5677 5677 5677 5677 5678 5678 5678 5678 5678 5679 5679 5678 5678 5678 5678 5677 5676 5675 5674 5672 5671 5669 5667 5665 5663 5661 5659 5657 5655 5654 5652 5651 5650 5649 5648 5648 5647 5646 5646 5646 5645 5645
5678 5678 5678 5678 5678 5678 5678 5678 5678 5678 5678 5678 5678 5678 5677 5677 5676 5676 5675 5673 5672 5670 5668 5666 5664 5663 5661 5659 5657 5656 5654 5653 5652 5651 5650 5649 5649 5648 5648 5648 5648 5648 5647
5680 5680 5680 5679 5679 5679 5679 5679 5679 5678 5678 5678 5678 5678 5677 5677 5676 5676 5675 5673 5672 5670 5669 5667 5665 5663 5661 5659 5658 5656 5655 5654 5653 5652 5651 5651 5650 5650 5650 5650 5650 5650 5650
5683 5683 5682 5681 5681 5681 5680 5680 5680 5680 5679 5679 5679 5678 5678 5678 5677 5676 5675 5674 5673 5671 5669 5668 5666 5664 5662 5660 5659 5657 5656 5655 5654 5653 5653 5653 5652 5652 5652 5652 5652 5652 5652
5686 5686 5685 5684 5684 5683 5683 5682 5682 5681 5681 5681 5680 5680 5680 5679 5678 5677 5676 5675 5674 5673 5671 5669 5668 5666 5664 5663 5661 5660 5659 5658 5657 5656 5655 5655 5655 5655 5655 5655 5655 5655 5654